User: anonymous   Login
Location: Unspecified
(0.0000°N, 0.0000°E)
Time: 11:51:49
(UTC+00:00)
Language:

CLOUDSAT - Orbit

View from above orbital plane
View from above orbital plane
View from above satellite
View from above satellite

Ground track
Ground track

The orbit data is extracted from the following two-line orbital elements,

1 29107U 06016A   14324.82732680  .00000957  00000-0  22253-3 0  8461
2 29107 098.2136 266.3536 0001581 076.3833 283.7555 14.57095687455647
Epoch (UTC): 20 November 2014 19:51:21
Eccentricity: 0.0001581
inclination: 98.2136°
perigee height: 701 km
apogee height: 703 km
right ascension of ascending node: 266.3536°
argument of perigee: 76.3833°
revolutions per day: 14.57095687
mean anomaly at epoch: 283.7555°
orbit number at epoch: 45564

The dashed part of the orbit path shows where the satellite is in the earth's shadow,  

DLR